Date,TemperatureHighF,TemperatureAvgF,TemperatureLowF,DewpointHighF,DewpointAvgF,DewpointLowF,HumidityHigh,HumidityAvg,HumidityLow,PressureMaxIn,PressureMinIn,WindSpeedMaxMPH,WindSpeedAvgMPH,GustSpeedMaxMPH,PrecipitationSumIn
2013-1-1,51.4,49.4,46.9,48.1,40.1,26.7,91,73,45,30.30,30.12,5,1,5,0.21
2013-1-2,51.4,49.0,45.9,49.2,44.4,39.0,93,84,72,30.32,30.05,98,2,98,18.73
2013-1-3,46.0,42.2,30.7,39.9,37.0,27.1,87,82,77,30.44,30.27,6,1,6,0.01
2013-1-4,51.6,37.7,25.7,35.8,24.7,16.7,92,64,37,30.51,30.39,8,1,8,0.00
2013-1-5,51.6,39.1,25.0,33.8,22.2,15.4,76,54,29,30.57,30.40,6,1,8,0.00
2013-1-6,53.8,45.4,39.6,39.9,35.4,28.7,85,69,59,30.41,30.22,6,1,8,0.02
2013-1-7,53.8,40.9,30.0,32.8,26.9,24.5,81,61,37,30.59,30.37,10,1,10,0.00
2013-1-8,55.4,43.7,29.3,38.7,33.2,23.6,83,68,50,30.62,30.52,5,1,5,0.00
2013-1-9,67.8,53.1,38.7,48.8,42.8,35.0,89,70,51,30.62,30.53,6,1,6,0.00
2013-1-10,70.2,58.3,46.2,51.7,46.1,41.0,90,67,44,30.67,30.53,9,2,11,0.00
2013-1-11,55.6,52.1,49.5,50.6,49.2,47.2,93,90,79,30.54,30.33,9,2,9,0.01
2013-1-12,75.9,61.6,51.3,66.7,56.1,49.3,96,84,61,30.35,30.26,8,1,11,0.00
2013-1-13,75.4,65.8,57.7,61.4,57.8,55.4,93,77,56,30.32,30.22,8,2,14,0.02
2013-1-14,71.1,64.9,61.3,64.7,59.6,55.6,90,83,75,30.31,30.23,8,2,8,0.05
2013-1-15,65.5,53.6,45.9,59.9,50.6,44.2,95,90,82,30.35,30.22,9,2,9,0.02
2013-1-16,52.3,47.8,44.1,50.4,46.2,42.7,96,94,93,30.24,30.14,7,1,8,0.24
2013-1-17,53.1,47.8,36.7,51.4,45.6,33.1,95,92,85,30.35,29.94,17,4,20,1.23
2013-1-18,50.9,39.2,31.1,36.3,25.6,13.1,90,64,26,30.68,30.33,10,2,11,0.01
2013-1-19,55.4,39.1,25.3,32.4,24.2,19.5,84,59,28,30.65,30.34,7,1,9,0.01
2013-1-20,64.9,48.5,33.4,32.9,27.9,22.9,72,49,28,30.35,30.18,8,2,17,0.00
2013-1-21,61.3,46.8,29.8,36.0,22.9,3.8,83,47,19,30.26,30.09,17,3,17,0.00
2013-1-22,46.8,37.6,28.8,11.3,-0.9,-7.6,33,22,16,30.42,30.17,15,4,15,0.00
2013-1-23,47.1,34.5,21.2,25.0,9.2,-7.9,61,39,19,30.53,30.22,7,2,12,0.00
2013-1-24,53.8,40.0,26.8,34.0,9.9,-11.0,74,36,15,30.66,30.15,14,4,17,0.00
2013-1-25,27.3,25.2,21.0,19.1,8.2,-10.4,77,51,22,30.67,30.28,5,1,7,0.01
2013-1-26,47.7,33.2,23.5,34.3,25.0,17.1,84,72,51,30.52,30.26,6,1,7,0.00
2013-1-27,46.0,37.8,27.7,26.9,24.2,18.8,82,60,43,30.73,30.51,7,2,8,0.00
2013-1-28,50.7,42.7,32.5,44.9,33.4,24.8,85,70,58,30.65,30.43,6,1,7,0.01
2013-1-29,73.8,58.5,41.2,56.9,49.5,38.5,93,74,52,30.43,30.21,11,2,14,0.00
2013-1-30,76.8,67.3,51.4,61.8,58.1,46.1,86,74,51,30.22,29.61,21,8,23,0.34
2013-1-31,52.0,46.4,37.8,45.6,25.4,9.0,81,49,23,30.21,29.74,24,7,24,0.00
2013-2-1,41.4,41.2,41.0,22.0,21.5,21.1,47,46,46,30.21,30.19,6,5,12,0.00
2013-2-3,55.4,45.6,33.1,26.4,19.3,8.3,58,38,21,30.20,30.04,17,4,21,0.00
2013-2-4,52.2,39.0,26.2,27.3,20.6,16.2,73,51,28,30.33,30.19,8,1,8,0.00
2013-2-5,64.8,50.5,35.4,41.4,32.0,23.0,78,52,32,30.21,30.06,11,2,16,0.00
2013-2-6,65.3,50.5,33.8,44.0,27.6,13.9,90,52,18,30.41,30.17,9,1,9,0.00
2013-2-7,49.6,44.0,40.8,39.3,33.1,21.1,91,69,37,30.45,30.15,13,3,14,0.38
2013-2-8,61.9,48.7,40.1,45.2,37.4,26.0,91,69,36,30.29,30.04,16,5,17,0.01
2013-2-9,59.7,44.1,28.4,30.8,16.9,1.2,78,43,13,30.52,30.28,8,2,13,0.01
2013-2-10,59.4,47.0,33.1,46.6,26.8,8.8,90,52,17,30.62,30.38,8,2,10,0.12
2013-2-11,62.2,57.5,49.6,59.6,54.3,46.2,94,89,81,30.38,30.14,17,4,17,0.04
2013-2-12,63.5,53.5,44.1,49.3,36.8,16.5,94,62,20,30.30,30.09,8,1,10,0.05
2013-2-13,50.0,47.0,39.9,47.4,43.3,32.9,93,87,68,30.14,29.85,14,2,14,0.07
2013-2-14,54.1,42.0,30.0,37.7,31.5,26.1,89,69,47,30.26,30.06,6,1,9,0.00
2013-2-15,64.2,47.5,29.3,41.9,29.9,21.2,90,58,23,30.28,30.11,11,2,13,0.00
2013-2-16,49.8,37.1,25.3,34.9,29.7,19.8,85,75,58,30.18,30.01,7,2,12,0.12
2013-2-17,42.3,31.6,20.1,26.5,14.1,0.1,79,54,20,30.44,30.18,15,2,15,0.05
2013-2-18,56.1,39.3,20.5,25.0,17.9,10.1,73,47,25,30.57,30.40,9,2,10,0.00
2013-2-19,49.3,41.3,34.5,44.2,33.9,20.6,90,76,52,30.41,30.07,8,2,8,0.22
2013-2-20,56.8,43.0,27.5,28.1,15.4,0.1,76,40,14,30.30,30.19,8,2,9,0.00
2013-2-21,59.0,45.2,28.9,31.5,13.6,3.3,55,33,16,30.44,30.27,7,1,8,0.01
2013-2-22,48.7,39.7,37.6,36.3,34.0,23.9,92,82,42,30.48,30.28,10,3,11,0.28
2013-2-23,43.9,40.8,37.6,41.6,38.6,35.5,93,92,89,30.31,30.02,5,2,8,0.07
2013-2-24,65.7,51.0,42.3,49.2,38.2,27.7,95,68,31,30.21,30.02,8,2,9,0.00
2013-2-25,44.2,42.1,39.7,29.4,24.1,21.0,60,50,43,30.35,30.19,11,4,14,0.00
2013-2-26,47.1,39.9,34.7,45.5,35.6,22.4,94,85,51,30.25,29.76,11,4,12,0.34
2013-2-27,59.4,48.0,36.1,40.1,36.5,31.3,95,68,44,30.01,29.84,11,3,13,0.00
2013-2-28,54.0,43.4,33.3,36.9,25.9,18.0,83,54,29,30.07,29.91,16,3,16,0.01
2013-3-1,49.6,40.8,28.8,30.6,25.4,21.4,76,56,42,30.12,30.04,9,2,11,0.00
2013-3-2,46.4,39.5,33.1,38.1,28.9,20.8,85,67,53,30.12,30.02,11,2,11,0.09
2013-3-3,48.9,37.0,25.2,21.8,14.3,3.8,66,43,21,30.19,30.06,13,4,13,0.00
2013-3-4,56.5,40.2,23.5,21.2,11.2,0.6,61,36,14,30.32,30.19,11,2,13,0.00
2013-3-5,59.2,48.2,37.0,52.8,35.5,20.2,91,63,41,30.25,29.78,11,2,17,0.17
2013-3-6,51.4,42.9,34.3,45.4,23.2,17.1,90,49,30,30.30,29.80,26,8,26,0.73
2013-3-7,57.9,42.3,28.6,28.1,23.1,19.5,74,51,26,30.44,30.30,12,3,13,0.00
2013-3-8,58.6,44.6,28.9,24.8,18.6,9.1,67,40,19,30.51,30.37,16,3,17,0.00
2013-3-9,66.0,48.9,32.5,33.6,25.3,17.2,66,45,20,30.54,30.41,9,2,9,0.00
2013-3-10,70.2,53.3,36.5,40.4,33.9,28.0,82,54,25,30.48,30.34,8,2,10,0.00
2013-3-11,71.2,57.2,42.6,54.9,40.1,20.0,89,55,40,30.39,30.04,18,4,20,0.05
2013-3-12,73.0,62.2,50.7,61.6,48.1,23.1,95,67,28,30.17,29.94,15,5,15,0.33
2013-3-13,60.8,48.1,34.7,35.8,23.2,10.4,79,44,21,30.33,30.15,14,4,18,0.00
2013-3-14,57.0,43.0,30.7,21.6,11.9,1.8,51,33,15,30.47,30.33,15,4,15,0.00
2013-3-15,68.7,49.2,29.3,39.3,26.4,15.4,70,45,26,30.40,30.09,7,2,12,0.00
2013-3-16,80.6,66.9,55.4,45.4,40.6,35.2,60,42,26,30.10,29.91,15,4,17,0.00
2013-3-17,80.6,62.9,49.5,51.9,43.5,36.6,74,52,32,30.26,30.04,12,3,15,0.00
2013-3-18,49.5,44.5,41.2,44.2,41.9,39.7,100,91,73,30.32,30.05,10,4,10,0.28
2013-3-19,69.6,54.3,42.1,52.2,27.9,-0.9,100,56,10,30.22,30.03,11,4,18,0.28
2013-3-20,58.8,49.8,40.1,24.7,9.1,-0.1,44,23,14,30.30,29.96,11,2,11,0.00
2013-3-21,51.1,41.4,31.8,27.0,6.3,-3.2,53,27,17,30.15,29.96,15,5,18,0.00
2013-3-22,56.1,40.6,25.2,26.0,14.8,7.7,58,38,19,30.27,30.15,8,1,10,0.00
2013-3-23,51.1,44.5,39.4,43.2,37.0,25.6,95,76,49,30.24,30.09,4,1,6,0.02
2013-3-24,44.1,41.9,39.6,43.5,40.9,38.2,100,97,88,30.11,29.73,12,3,15,0.38
2013-3-25,51.4,42.8,39.0,40.6,29.9,17.9,100,67,32,30.08,29.74,15,5,20,0.19
2013-3-26,50.4,40.9,28.4,28.2,23.3,19.1,76,52,37,30.35,30.07,11,4,15,0.00
2013-3-27,57.4,43.8,29.7,28.6,19.2,7.5,73,43,18,30.44,30.35,13,4,15,0.00
2013-3-28,60.6,44.8,28.6,28.0,18.1,6.0,74,41,15,30.49,30.36,11,3,15,0.00
2013-3-29,66.7,49.0,28.4,36.5,23.8,8.8,82,46,14,30.53,30.36,9,2,11,0.00
2013-3-30,69.6,56.2,46.8,52.4,44.2,35.2,100,69,39,30.41,30.24,8,2,8,0.11
2013-3-31,73.9,60.9,51.1,59.0,52.5,45.0,100,77,47,30.25,30.00,17,3,18,0.19
2013-4-1,77.4,64.3,52.3,58.6,44.5,26.1,100,59,19,30.13,30.02,17,3,17,0.02
2013-4-2,68.5,55.3,41.7,39.4,32.9,12.9,75,48,18,30.35,30.13,9,2,11,0.00
2013-4-3,63.5,55.5,47.3,24.5,12.9,6.8,36,22,15,30.45,30.28,10,4,14,0.00
2013-4-4,53.6,44.2,37.9,45.2,31.2,13.9,100,68,26,30.45,30.14,11,4,15,0.61
2013-4-5,67.8,50.5,37.8,48.3,41.9,37.5,100,77,44,30.23,30.08,8,2,11,0.01
2013-4-6,72.3,56.3,37.9,44.9,35.7,25.5,95,55,22,30.41,30.22,8,2,11,0.01
2013-4-7,75.6,59.1,43.2,50.5,44.7,36.7,81,62,39,30.45,30.27,14,2,14,0.00
2013-4-8,81.9,67.3,51.8,59.2,52.8,48.4,97,64,39,30.36,30.23,11,2,14,0.00
2013-4-9,86.9,70.7,53.4,60.7,55.8,51.3,96,63,41,30.38,30.27,8,2,9,0.00
2013-4-10,88.3,74.0,60.4,63.3,58.5,54.6,93,63,39,30.30,30.14,14,2,15,0.00
2013-4-11,83.5,71.3,60.4,67.7,61.8,56.1,97,75,50,30.17,29.94,13,3,19,0.02
2013-4-12,84.6,72.5,61.9,68.7,58.0,39.1,100,67,26,30.00,29.82,20,4,20,0.21
2013-4-13,79.7,64.6,45.5,47.9,38.8,26.8,88,45,18,30.21,29.99,10,1,10,0.00
2013-4-14,79.0,63.5,45.5,53.7,44.9,36.4,92,57,27,30.27,30.17,9,2,11,0.00
2013-4-15,74.8,66.2,60.1,60.7,57.9,53.2,90,76,59,30.37,30.16,6,2,8,0.02
2013-4-16,82.0,68.8,60.6,64.3,59.6,56.0,95,75,45,30.48,30.36,6,1,9,0.00
2013-4-17,87.3,71.8,57.7,65.3,60.2,55.5,100,72,38,30.43,30.27,8,1,8,0.00
2013-4-18,83.7,71.3,61.9,67.1,61.6,57.5,94,74,46,30.35,30.17,10,2,12,0.00
2013-4-19,83.8,69.3,55.0,69.6,63.6,51.6,95,83,54,30.18,29.93,16,4,20,0.21
2013-4-20,68.2,55.5,43.0,52.1,36.7,21.3,90,56,21,30.44,30.07,10,3,12,0.02
2013-4-21,66.4,54.9,41.7,42.6,38.9,35.5,94,59,38,30.62,30.44,11,4,16,0.00
2013-4-22,67.5,55.1,42.6,40.3,31.1,15.5,80,47,19,30.61,30.40,11,4,15,0.00
2013-4-23,72.0,58.9,49.3,52.5,46.6,35.3,93,65,49,30.46,30.28,8,2,9,0.00
2013-4-24,79.2,64.0,50.7,61.0,55.1,50.4,100,77,45,30.34,30.19,10,2,17,0.00
2013-4-25,75.2,63.5,51.4,59.2,44.1,20.8,89,56,18,30.44,30.22,13,3,13,0.00
2013-4-26,76.5,61.8,47.5,48.0,35.6,22.8,71,44,21,30.62,30.43,11,2,12,0.00
2013-4-27,69.3,59.3,55.2,57.4,52.1,47.2,100,79,55,30.55,30.42,7,1,7,0.28
2013-4-28,61.5,57.4,55.2,60.9,56.9,54.4,100,99,95,30.44,30.24,8,2,10,1.09
2013-4-29,76.6,64.5,57.6,66.5,60.4,57.1,100,88,62,30.25,30.13,8,1,8,0.01
2013-4-30,75.2,64.9,57.0,66.2,60.0,56.3,100,86,61,30.35,30.17,10,2,11,0.01
2013-5-1,67.5,60.9,53.6,58.7,56.1,52.6,100,85,71,30.46,30.34,14,4,14,0.00
2013-5-2,66.7,60.5,58.1,60.3,57.8,56.2,100,91,79,30.48,30.39,11,4,13,0.11
2013-5-3,70.5,62.5,56.1,56.5,52.7,43.1,88,72,52,30.42,30.28,15,5,17,0.01
2013-5-4,65.7,57.6,50.9,52.6,47.8,40.7,81,71,55,30.31,30.17,15,7,19,0.26
2013-5-5,61.2,56.2,52.9,60.3,53.6,48.9,100,92,79,30.20,30.02,15,7,24,0.60
2013-5-6,75.0,64.6,56.1,63.4,55.8,45.6,100,77,40,30.08,30.00,16,3,19,0.92
2013-5-7,74.5,60.3,45.0,57.4,50.2,44.2,100,73,43,30.14,30.05,10,2,10,0.01
2013-5-8,81.0,65.7,51.1,61.4,56.0,50.8,100,75,42,30.19,30.10,11,1,13,0.00
2013-5-9,86.0,69.7,53.4,63.2,56.5,51.7,100,69,36,30.27,30.17,7,1,10,0.00
2013-5-10,87.6,73.0,56.3,66.0,59.7,55.7,100,68,41,30.25,30.13,8,1,13,0.00
2013-5-11,85.6,74.1,64.6,65.3,62.1,59.1,93,68,47,30.15,29.99,11,2,15,0.04
2013-5-12,77.9,67.7,56.1,63.2,45.8,8.5,97,55,11,30.22,30.01,13,4,18,0.01
2013-5-13,73.6,59.8,45.5,42.0,32.7,13.7,79,43,15,30.37,30.21,13,2,15,0.00
2013-5-14,77.5,61.4,42.1,45.1,39.9,33.2,88,51,28,30.45,30.27,9,2,10,0.00
2013-5-15,92.3,74.3,54.7,62.7,55.6,44.2,84,56,37,30.28,30.11,9,2,9,0.00
2013-5-16,87.8,75.1,60.4,64.5,59.5,54.3,90,62,38,30.22,30.12,10,2,10,0.00
2013-5-17,89.4,75.2,60.8,67.9,62.3,57.8,100,68,40,30.27,30.19,7,1,7,0.00
2013-5-18,77.4,71.4,64.8,67.0,64.4,62.2,93,79,65,30.33,30.25,6,2,11,0.00
2013-5-19,84.9,71.6,67.1,71.5,67.8,64.6,100,89,62,30.30,30.21,8,2,12,0.35
2013-5-20,85.3,73.6,68.2,73.7,69.1,67.0,100,88,61,30.31,30.19,5,1,8,0.04
2013-5-21,89.8,73.7,67.1,75.9,69.2,61.5,100,87,58,30.24,30.13,21,2,27,0.44
2013-5-22,86.9,75.6,66.6,71.9,67.6,61.6,100,79,53,30.20,30.07,13,2,13,0.07
2013-5-23,85.5,71.9,64.8,70.9,66.4,62.7,100,85,57,30.16,30.01,8,1,8,0.11
2013-5-24,76.6,68.5,52.7,63.6,48.6,26.7,95,57,21,30.38,30.05,17,4,21,0.24
2013-5-25,81.1,62.8,43.5,50.6,44.0,35.1,97,58,25,30.51,30.33,10,2,10,0.00
2013-5-26,79.7,66.5,56.7,54.3,46.3,36.7,84,52,31,30.48,30.35,8,2,8,0.00
2013-5-27,86.0,70.4,53.2,61.8,56.7,51.8,97,67,40,30.46,30.32,10,2,10,0.00
2013-5-28,86.7,74.8,62.6,68.1,63.5,59.7,96,71,49,30.43,30.32,11,2,11,0.00
2013-5-29,88.2,74.9,60.8,68.8,62.4,58.9,96,69,44,30.44,30.34,11,2,11,0.00
2013-5-30,87.8,74.5,61.0,70.4,62.8,59.0,100,71,42,30.47,30.34,8,2,10,0.00
2013-5-31,90.9,77.5,64.9,72.9,66.4,62.8,100,72,42,30.42,30.28,9,2,9,0.00
2013-6-1,90.3,78.3,67.5,72.0,67.1,62.2,96,72,44,30.32,30.20,10,2,11,0.00
2013-6-2,89.1,76.8,68.7,71.5,67.9,64.4,96,76,49,30.25,30.08,8,2,12,0.51
2013-6-3,87.6,74.5,67.8,74.0,69.5,64.5,100,87,55,30.14,30.02,8,1,10,1.24
2013-6-4,86.5,76.7,68.0,69.1,67.1,64.7,96,75,52,30.25,30.12,8,3,8,0.01
2013-6-5,82.8,73.4,68.5,72.3,68.7,65.6,93,86,69,30.28,30.17,8,3,11,0.00
2013-6-6,81.9,73.3,69.1,77.2,71.5,68.2,100,95,79,30.18,30.00,10,2,11,0.52
2013-6-7,86.2,73.0,67.6,75.7,69.8,64.0,100,91,66,30.03,29.81,9,2,12,0.87
2013-6-8,88.3,75.8,67.8,74.7,69.5,67.5,100,84,55,30.28,30.01,7,1,8,0.01
2013-6-9,90.3,75.0,66.9,74.4,69.9,66.6,100,86,52,30.33,30.25,11,1,11,0.11
2013-6-10,88.3,74.9,69.1,77.8,71.8,67.0,100,91,63,30.27,30.09,15,3,21,0.67
2013-6-11,91.4,79.0,68.9,74.8,67.7,60.6,100,73,40,30.18,30.11,13,2,15,0.01
2013-6-12,95.5,80.9,66.0,75.8,70.8,65.6,100,75,47,30.20,30.08,11,1,11,0.00
2013-6-13,96.3,82.9,70.9,76.1,72.3,65.3,97,75,44,30.08,29.86,16,2,17,0.31
2013-6-14,86.7,74.0,61.3,70.0,60.1,50.4,100,68,35,30.21,29.96,11,2,14,0.01
2013-6-15,88.9,74.1,60.1,68.1,61.6,58.4,100,71,40,30.32,30.20,8,1,8,0.01
2013-6-16,91.2,77.1,63.0,71.9,66.3,60.4,95,72,46,30.35,30.21,8,2,12,0.00
2013-6-17,91.6,77.2,70.7,74.8,69.7,65.4,100,80,53,30.24,30.12,10,2,11,0.14
2013-6-18,90.0,77.1,70.7,75.6,71.7,67.3,100,86,60,30.17,29.98,10,2,14,0.09
2013-6-19,86.4,77.0,70.3,72.0,66.6,59.4,97,74,44,30.29,30.07,8,2,10,0.00
2013-6-20,86.2,75.4,67.5,67.8,64.8,61.2,95,73,48,30.41,30.28,8,3,10,0.00
2013-6-21,85.6,74.5,63.0,64.3,61.6,58.2,92,68,45,30.45,30.35,8,2,12,0.00
2013-6-22,87.6,75.5,63.0,70.4,65.5,58.9,93,73,50,30.40,30.30,8,2,9,0.00
2013-6-23,88.2,76.8,69.1,75.1,70.5,67.9,100,83,56,30.39,30.31,8,1,10,0.01
2013-6-24,87.3,76.1,70.3,79.5,72.2,69.7,100,89,64,30.40,30.30,8,1,8,0.12
2013-6-25,94.8,80.2,71.8,75.8,71.7,68.0,97,79,45,30.33,30.20,11,2,15,0.01
2013-6-26,95.5,80.5,70.3,76.5,71.2,68.2,100,77,47,30.24,30.09,8,2,9,0.00
2013-6-27,94.6,80.4,71.8,78.3,73.1,67.8,100,81,50,30.14,29.93,11,2,17,0.12
2013-6-28,96.1,82.1,71.1,79.6,72.7,68.4,100,77,45,29.96,29.79,10,2,21,0.05
2013-6-29,89.8,78.8,71.4,75.7,71.5,67.0,100,81,55,29.91,29.82,11,2,11,0.01
2013-6-30,86.7,75.2,67.5,76.9,71.5,66.3,100,89,64,30.03,29.89,17,2,17,0.08
2013-7-1,85.8,75.5,67.5,75.4,70.7,67.2,100,86,63,30.17,30.00,10,2,12,0.05
2013-7-2,82.8,74.5,71.2,74.4,71.7,69.4,96,91,72,30.32,30.16,15,4,17,0.07
2013-7-3,83.3,76.4,73.0,75.7,73.7,72.1,100,92,75,30.40,30.30,8,2,9,0.06
2013-7-4,89.6,79.0,73.8,77.7,73.4,68.6,97,85,53,30.43,30.33,15,4,15,0.20
2013-7-5,87.6,78.5,73.4,78.1,73.9,71.6,100,87,64,30.43,30.35,8,3,10,0.58
2013-7-6,87.4,77.0,71.6,78.9,73.1,70.4,100,89,68,30.43,30.30,13,2,21,0.52
2013-7-7,89.1,78.8,72.1,77.1,74.1,71.2,100,87,63,30.37,30.25,10,2,15,0.24
2013-7-8,90.3,78.9,72.3,77.0,73.4,70.1,100,85,57,30.37,30.29,7,1,8,0.02
2013-7-9,94.5,81.1,73.0,77.1,73.7,70.8,100,81,52,30.35,30.24,9,2,10,0.00
2013-7-10,89.6,79.1,70.3,79.1,72.5,68.7,97,82,61,30.32,30.14,10,2,11,0.00
2013-7-11,83.3,75.7,71.4,77.7,73.4,69.8,100,93,79,30.17,30.06,5,1,6,0.01
2013-7-12,83.8,76.1,71.1,73.8,71.1,67.9,100,86,65,30.19,30.06,11,2,11,0.00
2013-7-13,84.4,75.5,71.4,74.1,70.3,67.8,97,85,67,30.30,30.18,9,3,11,0.00
2013-7-14,88.3,78.3,71.8,75.8,72.0,67.4,100,84,55,30.46,30.27,12,4,17,0.00
2013-7-15,90.9,79.6,71.2,75.2,71.1,66.1,100,79,48,30.51,30.42,8,2,8,0.00
2013-7-16,96.4,83.2,70.9,77.1,71.3,66.6,100,73,42,30.50,30.40,5,1,7,0.00
2013-7-17,94.8,78.6,71.4,78.2,73.2,68.8,96,85,52,30.43,30.32,10,1,13,0.01
2013-7-18,94.1,80.9,69.3,77.1,73.1,69.0,100,80,51,30.36,30.25,8,1,8,0.00
2013-7-19,92.7,82.5,74.3,77.6,74.3,71.2,100,79,56,30.31,30.18,8,2,11,0.00
2013-7-20,90.7,79.6,74.5,77.1,74.0,71.5,95,84,62,30.25,30.12,9,2,9,0.00
2013-7-21,92.7,78.7,73.4,76.8,73.2,69.6,100,85,56,30.21,30.09,12,1,12,0.01
2013-7-22,90.7,78.3,71.4,77.3,73.2,70.3,100,86,59,30.19,30.03,8,1,11,0.13
2013-7-23,93.4,82.1,73.4,75.6,71.9,66.4,96,75,46,30.06,29.96,8,2,12,0.00
2013-7-24,97.5,81.0,70.9,76.8,70.3,62.5,100,75,41,30.04,29.93,10,2,13,0.01
2013-7-25,88.0,77.1,70.2,71.6,69.3,66.6,97,79,53,30.21,30.00,6,2,9,0.01
2013-7-26,89.4,77.7,68.0,71.8,68.7,65.7,100,77,49,30.29,30.19,8,2,8,0.00
2013-7-27,83.5,75.1,72.0,75.7,71.9,68.5,96,90,73,30.22,30.10,8,2,10,0.33
2013-7-28,91.8,79.8,71.1,75.5,71.6,69.3,100,79,52,30.19,30.11,8,2,8,0.00
2013-7-29,91.0,79.1,70.3,73.3,68.9,63.5,100,74,44,30.35,30.17,7,1,9,0.00
2013-7-30,89.2,78.5,69.6,71.4,67.7,62.1,100,74,45,30.40,30.32,7,1,9,0.00
2013-7-31,85.1,75.4,70.5,73.6,71.0,66.2,97,87,65,30.35,30.19,15,1,15,0.57
2013-8-1,90.1,77.0,71.6,76.1,72.7,69.8,100,88,58,30.19,30.07,4,1,52,0.08
2013-8-2,91.9,79.5,69.3,76.3,70.7,66.8,100,78,49,30.22,30.11,6,1,8,0.01
2013-8-3,92.8,81.1,73.8,79.5,72.8,67.4,100,79,49,30.22,30.13,11,1,11,0.01
2013-8-4,89.2,79.3,70.5,75.2,68.1,62.4,100,73,44,30.20,30.12,10,2,11,0.00
2013-8-5,89.1,81.7,74.5,69.1,66.2,62.0,82,62,46,30.22,30.17,9,2,9,0.00
2013-8-6,77.0,72.7,68.0,71.6,68.4,63.7,96,87,73,30.25,30.17,10,3,11,0.43
2013-8-7,87.1,77.3,70.5,73.7,70.6,66.6,100,82,54,30.28,30.20,10,2,10,0.00
2013-8-8,90.5,78.8,73.0,76.6,73.0,70.4,96,84,58,30.27,30.19,7,1,7,0.01
2013-8-9,92.7,81.4,73.9,78.0,74.1,69.8,97,81,59,30.27,30.19,11,2,11,0.00
2013-8-10,97.0,82.6,73.9,78.5,73.5,70.3,97,77,48,30.30,30.23,11,2,13,0.00
2013-8-11,96.6,81.9,72.7,76.3,73.1,69.6,100,79,45,30.32,30.22,8,1,11,0.05
2013-8-12,96.6,82.5,71.6,77.5,72.7,68.7,100,76,44,30.27,30.13,8,1,10,0.01
2013-8-13,93.0,80.8,72.1,78.3,72.4,66.3,100,78,52,30.16,30.00,11,2,13,0.52
2013-8-14,80.1,73.9,68.7,72.4,65.3,59.5,100,77,52,30.26,30.05,10,2,10,0.00
2013-8-15,77.7,69.4,33.4,62.9,57.7,-11.8,86,69,16,30.33,30.24,11,3,14,0.00
2013-8-16,70.7,66.1,61.5,64.7,60.1,56.2,91,82,67,30.34,30.26,9,2,9,0.07
2013-8-17,68.0,65.3,62.6,66.9,64.0,59.7,100,96,81,30.37,30.31,7,2,8,0.92
2013-8-18,87.8,74.4,66.7,73.1,69.6,66.3,100,87,57,30.40,30.31,4,1,7,0.01
2013-8-19,80.1,73.4,68.7,72.7,70.5,67.5,97,91,72,30.37,30.27,4,1,5,0.50
2013-8-20,84.9,74.1,66.2,74.1,70.1,65.9,100,89,65,30.38,30.29,4,1,5,0.01
2013-8-21,88.2,76.2,71.1,77.2,72.8,68.2,100,90,64,30.42,30.30,11,1,11,0.33
2013-8-22,93.9,79.9,69.8,77.3,71.4,66.5,100,79,45,30.35,30.19,6,1,8,0.00
2013-8-23,92.7,77.5,69.4,75.7,69.4,63.7,100,80,44,30.25,30.14,10,1,11,0.00
2013-8-24,85.1,74.4,65.3,69.4,61.9,55.2,88,68,42,30.47,30.24,11,3,12,0.00
2013-8-25,83.8,71.3,60.8,66.1,59.8,54.8,97,71,42,30.57,30.45,9,2,11,0.00
2013-8-26,85.8,70.3,57.4,65.6,60.9,57.1,100,76,45,30.51,30.31,5,1,7,0.00
2013-8-27,93.4,76.6,63.1,70.8,66.2,61.1,96,74,45,30.34,30.18,6,1,10,0.00
2013-8-28,93.6,80.5,69.1,73.6,70.6,67.6,97,75,45,30.21,30.12,8,1,8,0.04
2013-8-29,77.2,75.2,74.5,73.3,72.2,71.5,92,90,87,30.13,30.09,2,0,4,0.00
2013-11-24,42.6,36.4,27.0,6.4,0.1,-8.9,39,24,16,30.70,30.58,12,3,15,0.00
2013-11-25,43.9,34.5,21.4,12.7,3.8,-3.1,61,32,17,30.74,30.50,7,2,8,0.00
2013-11-26,45.9,40.2,33.3,44.9,30.9,2.6,100,79,23,30.49,29.78,13,3,13,0.87
2013-11-27,47.7,40.6,28.4,47.4,35.1,15.6,99,82,50,30.40,29.71,15,4,15,0.17
2013-11-28,46.0,32.2,20.8,25.3,19.8,14.9,83,63,38,30.66,30.40,5,1,6,0.00
2013-11-29,53.6,38.0,24.1,33.8,21.9,14.7,92,59,24,30.77,30.64,10,2,10,0.00
2013-11-30,49.3,38.5,30.6,27.0,23.0,20.9,72,56,36,30.81,30.54,8,2,10,0.00
2013-12-1,58.1,42.5,30.2,39.8,32.9,25.7,90,71,43,30.53,30.21,5,1,7,0.00
2013-12-2,59.4,46.2,32.4,43.7,37.4,30.6,100,75,42,30.20,30.00,6,1,6,0.00
2013-12-3,63.7,53.7,45.0,53.8,47.1,39.4,93,79,61,30.16,30.05,7,1,8,0.01
2013-12-4,66.7,59.4,53.6,62.6,57.1,51.6,100,93,78,30.28,30.14,6,1,6,0.01
2013-12-5,67.5,63.9,60.6,66.3,63.2,59.9,100,98,93,30.32,30.22,9,2,10,0.05
2013-12-6,77.2,69.9,63.3,65.8,63.0,60.8,100,80,60,30.27,30.16,11,4,14,0.00
2013-12-7,69.6,56.7,47.5,64.4,50.1,38.4,95,79,70,30.59,30.18,11,4,15,0.05
2013-12-8,47.1,39.4,35.4,38.4,34.6,32.9,93,84,65,30.59,30.43,11,4,12,0.05
2013-12-9,47.1,41.5,36.0,46.7,40.8,33.9,100,97,92,30.44,30.22,4,1,4,0.17
2013-12-10,54.3,46.6,32.5,51.3,39.3,21.5,100,80,36,30.51,30.09,15,2,20,0.05
2013-12-11,51.3,36.0,24.3,33.0,23.0,17.7,88,63,30,30.63,30.47,5,1,6,0.00
2013-12-12,48.9,35.9,27.3,27.1,18.6,6.2,84,55,24,30.59,30.46,9,1,9,0.00
2013-12-13,54.0,37.3,22.6,32.2,22.7,13.4,82,59,31,30.56,28.93,7,1,8,0.00
2013-12-14,51.6,43.3,40.5,47.6,37.5,31.1,95,81,64,30.44,29.97,12,3,18,0.69
2013-12-15,56.1,44.6,31.6,48.4,35.3,22.8,100,74,38,30.30,29.93,15,3,16,0.01
2013-12-16,57.2,41.6,27.3,35.7,28.7,22.0,87,64,38,30.36,30.27,7,1,8,0.00
2013-12-17,62.6,47.8,32.0,35.9,30.9,25.0,82,56,31,30.32,30.13,11,2,14,0.00
2013-12-18,52.3,41.7,31.6,31.0,17.0,2.2,65,42,17,30.47,30.24,8,2,11,0.00
2013-12-19,63.0,43.9,28.0,29.7,21.3,9.1,77,49,16,30.52,30.41,8,1,9,0.00
2013-12-20,65.5,51.6,39.0,51.2,42.2,28.3,93,72,52,30.43,30.32,9,1,10,0.00
2013-12-21,73.8,60.8,46.2,64.1,55.3,45.3,100,84,62,30.34,30.20,13,3,17,0.00
2013-12-22,73.6,67.9,64.2,68.5,65.2,62.6,100,92,77,30.28,30.19,17,4,17,1.06
2013-12-23,64.6,59.9,48.4,64.3,57.9,35.2,100,94,64,30.35,30.19,8,2,11,1.75
2013-12-24,50.5,42.1,31.6,35.2,24.6,11.1,75,52,33,30.62,30.34,14,4,14,0.00
2013-12-25,41.2,32.0,24.3,17.8,8.3,-2.3,53,40,21,30.73,30.55,9,2,10,0.00
2013-12-26,52.5,40.4,33.8,27.2,21.1,15.4,63,49,28,30.55,30.43,5,1,8,0.00
2013-12-27,52.2,38.8,28.9,26.5,18.8,9.0,71,49,21,30.65,30.53,6,1,8,0.00
2013-12-28,54.5,40.5,25.0,35.9,26.7,19.3,86,61,30,30.59,30.26,4,1,4,0.01
2013-12-29,54.0,45.5,41.4,49.3,43.0,35.9,97,91,69,30.30,29.97,8,2,11,1.03
2013-12-30,54.7,44.5,34.5,48.0,40.3,33.2,100,87,63,30.30,30.13,5,1,5,0.00
2013-12-31,51.1,42.9,33.8,43.1,31.7,20.7,92,69,33,30.55,30.27,9,1,10,0.00
2014-1-1,51.1,40.0,31.3,33.9,29.6,26.5,85,69,42,30.58,30.31,4,1,6,0.00
2014-1-2,50.0,44.5,35.6,46.0,39.7,15.1,94,84,44,30.32,29.83,21,2,21,0.17